Commit Graph

42 Commits

Author SHA1 Message Date
mrkubax10 595241a9b2 Add iron plate 2025-11-20 20:40:00 +01:00
mrkubax10 d13d2b9dfd Implement few fluid related registration functions 2025-11-11 19:50:29 +01:00
mrkubax10 63960f3de1 Refactor item fluid storage 2025-04-28 13:36:17 +02:00
mrkubax10 84ff508056 Refactor item power storage 2025-04-28 13:10:41 +02:00
mrkubax10 ae123446ad Move some common tool functionality to separate files for further usage 2025-04-06 22:07:38 +02:00
HandfulOfFrogs 6a705dbb01 feat: new cell textures + unified texture for all cells 2024-05-11 14:03:19 +03:00
HandfulOfFrogs 82071bf480 feat: new plate textures 2024-05-10 22:04:34 +03:00
HandfulOfFrogs 7a0784d144 feat: color adjustments & textures 2024-05-10 18:52:45 +03:00
HandfulOfFrogs d176e89ab4 feat: outlined textures for some crafting mats and tweaked colors for dusts 2024-05-10 17:50:19 +03:00
mrkubax10 a8f788d4d9 Implement Quantum Suit
Maximum tier armor with following features:
- Breath points refill underwater
- Electric Jetpack capabilities
- Faster running with Aux1 key
- Higher jumping with Aux1 key
2024-03-29 12:06:48 +01:00
mrkubax10 42fb3be910 Change Nuclear Reactor Chamber craft to use Lead Plate 2024-03-23 18:40:52 +01:00
mrkubax10 a3e17ea5a1 Add Lead Ingot cooking craft from Lead Dust 2024-03-10 21:54:32 +01:00
mrkubax10 a197d1c2aa Add Sulfur Dust craft 2024-03-10 16:39:16 +01:00
mrkubax10 514e8cf5f1 Add lead ore (finally!) 2024-03-10 13:49:03 +01:00
mrkubax10 a90b4f8cfe Implement Rotary Macerator
It's a more advanced version of regular Macerator.
It introduces RPM which makes machine faster the longer it
works.
2024-03-08 22:41:02 +01:00
mrkubax10 d2346f65aa Introduce compatibility with mcl_rubber mod
Closes #1
2024-02-26 17:06:11 +01:00
mrkubax10 87f0a65f21 Implement Coal Cell and items required to make it
Coal Fuel can be used to fill Fuel Can or Jetpack
2024-01-17 19:21:09 +01:00
mrkubax10 6cf004ff0e Implement Canning Machine 2024-01-12 20:17:36 +01:00
mrkubax10 e69d16aeb0 Add simple item fluid storage API 2024-01-11 19:48:09 +01:00
mrkubax10 6da4aef854 Implement Jetpack 2024-01-09 11:07:00 +01:00
mrkubax10 d973f97916 Add Biofuel Cell and some items required to produce it 2024-01-07 14:30:33 +01:00
mrkubax10 7446169bc0 Add mass fabricator 2023-11-23 19:17:19 +01:00
mrkubax10 f697cfbcc4 Add advanced machine block craft 2023-11-23 08:44:06 +01:00
mrkubax10 462daec9df Implement nuclear reactor 2023-11-18 20:43:34 +01:00
mrkubax10 70c9b758f8 Register uranium cell and coolant cell as tools 2023-11-18 14:24:49 +01:00
mrkubax10 2205b320cd Add missing power storage nodes crafts 2023-04-19 09:25:51 +02:00
mrkubax10 acde04b766 Add advanced electronic circuit 2023-04-15 13:54:07 +02:00
mrkubax10 a9387b9570 Add lapotron crystal 2023-04-15 13:40:49 +02:00
mrkubax10 df492b90e3 Add energy crystal 2023-04-15 13:33:47 +02:00
mrkubax10 b8aff72da2 Implement storage cells 2023-04-13 11:56:33 +02:00
mrkubax10 31a1470ba0 Implement Recycler 2023-03-23 09:51:49 +02:00
mrkubax10 8da3968a46 Normalize power flow 2023-03-22 21:13:02 +01:00
mrkubax10 84014b9d9b Implement Extractor 2023-03-22 20:57:37 +01:00
mrkubax10 8f400f32c6 Move registerResourceDust to api 2023-03-22 10:34:14 +01:00
mrkubax10 3382310015 Add resource dusts 2023-03-21 13:30:31 +01:00
mrkubax10 20952b751a Add electronic circuit craft 2023-03-17 18:58:14 +01:00
mrkubax10 63bdb0e0e6 Add rubber tree related items 2023-03-15 18:10:54 +01:00
mrkubax10 f8a43e567d Use copper cable in RE-Battery craft 2023-03-11 19:52:16 +01:00
mrkubax10 cbecc6a02a Add electronic circuit 2023-03-05 17:25:07 +01:00
mrkubax10 d268618cff Add refined iron, machine block and generator craft 2023-03-04 16:01:06 +01:00
mrkubax10 f82170b5e5 Some RE-Battery improvvements 2023-03-04 13:51:36 +01:00
mrkubax10 3671e96a18 Implement RE-Battery, generator fixes 2023-03-03 22:28:05 +01:00